Time,TemperatureF,DewpointF,PressureIn,WindDirection,WindDirectionDegrees,WindSpeedMPH,WindSpeedGustMPH,Humidity,HourlyPrecipIn,Conditions,Clouds,dailyrainin,SoftwareType,DateUTC
2013-01-21 00:02:00,48.6,35.3,30.17,NE,39,0.0,2.0,60,0.00,,,0.00,WeatherCatV1.13B119,2013-01-21 08:02:00,
2013-01-21 00:07:00,48.6,35.3,30.17,NE,34,0.0,2.0,60,0.00,,,0.00,WeatherCatV1.13B119,2013-01-21 08:07:00,
2013-01-21 00:12:00,48.8,35.5,30.16,NE,37,1.0,3.0,60,0.00,,,0.00,WeatherCatV1.13B119,2013-01-21 08:12:00,
2013-01-21 00:17:00,48.8,35.5,30.16,NNE,30,1.0,3.0,60,0.00,,,0.00,WeatherCatV1.13B119,2013-01-21 08:17:00,
2013-01-21 00:22:00,48.8,35.1,30.16,NE,40,1.0,2.0,59,0.00,,,0.00,WeatherCatV1.13B119,2013-01-21 08:22:00,
2013-01-21 00:27:00,48.8,35.1,30.16,NE,37,2.0,3.0,59,0.00,,,0.00,WeatherCatV1.13B119,2013-01-21 08:27:00,
2013-01-21 00:32:00,48.6,35.3,30.16,NE,42,1.0,2.0,60,0.00,,,0.00,WeatherCatV1.13B119,2013-01-21 08:32:00,
2013-01-21 00:37:00,48.3,35.1,30.16,NE,43,0.0,1.0,60,0.00,,,0.00,WeatherCatV1.13B119,2013-01-21 08:37:00,
2013-01-21 00:42:00,48.1,34.9,30.16,NNE,30,1.0,2.0,60,0.00,,,0.00,WeatherCatV1.13B119,2013-01-21 08:42:00,
2013-01-21 00:47:00,47.9,35.1,30.16,NE,34,1.0,2.0,61,0.00,,,0.00,WeatherCatV1.13B119,2013-01-21 08:47:00,
2013-01-21 00:52:00,47.7,34.9,30.15,NE,40,0.0,4.0,61,0.00,,,0.00,WeatherCatV1.13B119,2013-01-21 08:52:00,
2013-01-21 00:57:00,47.5,35.1,30.15,NE,41,0.0,2.0,62,0.00,,,0.00,WeatherCatV1.13B119,2013-01-21 08:57:00,
2013-01-21 01:02:00,47.1,34.8,30.15,NE,37,0.0,2.0,62,0.00,,,0.00,WeatherCatV1.13B119,2013-01-21 09:02:00,
2013-01-21 01:07:00,46.9,35.0,30.15,NE,44,0.0,3.0,63,0.00,,,0.00,WeatherCatV1.13B119,2013-01-21 09:07:00,
2013-01-21 01:12:00,46.7,35.2,30.15,NE,37,0.0,0.0,64,0.00,,,0.00,WeatherCatV1.13B119,2013-01-21 09:12:00,
2013-01-21 01:17:00,46.8,34.9,30.15,NNE,32,1.0,2.0,63,0.00,,,0.00,WeatherCatV1.13B119,2013-01-21 09:17:00,
2013-01-21 01:22:00,46.9,35.0,30.15,NNE,32,1.0,1.0,63,0.00,,,0.00,WeatherCatV1.13B119,2013-01-21 09:22:00,
2013-01-21 01:27:00,46.8,34.9,30.15,NE,56,0.0,2.0,63,0.00,,,0.00,WeatherCatV1.13B119,2013-01-21 09:27:00,
2013-01-21 01:32:00,46.6,35.1,30.15,WSW,252,0.0,1.0,64,0.00,,,0.00,WeatherCatV1.13B119,2013-01-21 09:32:00,
2013-01-21 01:37:00,46.4,35.3,30.15,NE,37,0.0,0.0,65,0.00,,,0.00,WeatherCatV1.13B119,2013-01-21 09:37:00,
2013-01-21 01:42:00,46.4,34.9,30.15,NE,36,1.0,3.0,64,0.00,,,0.00,WeatherCatV1.13B119,2013-01-21 09:42:00,
2013-01-21 01:47:00,46.4,34.9,30.15,NE,44,2.0,2.0,64,0.00,,,0.00,WeatherCatV1.13B119,2013-01-21 09:47:00,
2013-01-21 01:52:00,46.2,35.5,30.15,NE,44,0.0,0.0,66,0.00,,,0.00,WeatherCatV1.13B119,2013-01-21 09:52:00,
2013-01-21 01:57:00,45.7,35.0,30.15,WSW,244,0.0,0.0,66,0.00,,,0.00,WeatherCatV1.13B119,2013-01-21 09:57:00,
2013-01-21 02:03:00,45.3,34.6,30.15,WSW,248,0.0,0.0,66,0.00,,,0.00,WeatherCatV1.13B119,2013-01-21 10:03:00,
2013-01-21 02:08:00,45.2,34.5,30.14,NNE,25,0.0,0.0,66,0.00,,,0.00,WeatherCatV1.13B119,2013-01-21 10:08:00,
2013-01-21 02:13:00,45.2,34.9,30.14,WNW,288,0.0,1.0,67,0.00,,,0.00,WeatherCatV1.13B119,2013-01-21 10:13:00,
2013-01-21 02:18:00,45.2,34.5,30.14,NE,39,0.0,0.0,66,0.00,,,0.00,WeatherCatV1.13B119,2013-01-21 10:18:00,
2013-01-21 02:23:00,45.2,34.5,30.14,NNE,30,0.0,0.0,66,0.00,,,0.00,WeatherCatV1.13B119,2013-01-21 10:23:00,
2013-01-21 02:28:00,45.1,34.8,30.14,WSW,255,0.0,0.0,67,0.00,,,0.00,WeatherCatV1.13B119,2013-01-21 10:28:00,
2013-01-21 02:33:00,45.0,34.7,30.15,NE,48,0.0,0.0,67,0.00,,,0.00,WeatherCatV1.13B119,2013-01-21 10:33:00,
2013-01-21 02:38:00,44.8,34.9,30.15,NNE,32,1.0,1.0,68,0.00,,,0.00,WeatherCatV1.13B119,2013-01-21 10:38:00,
2013-01-21 02:43:00,44.7,35.2,30.15,NNE,27,0.0,0.0,69,0.00,,,0.00,WeatherCatV1.13B119,2013-01-21 10:43:00,
2013-01-21 02:48:00,44.5,35.0,30.14,ENE,73,0.0,0.0,69,0.00,,,0.00,WeatherCatV1.13B119,2013-01-21 10:48:00,
2013-01-21 02:53:00,44.4,35.6,30.14,WNW,290,0.0,0.0,71,0.00,,,0.00,WeatherCatV1.13B119,2013-01-21 10:53:00,
2013-01-21 02:58:00,44.2,35.4,30.14,West,269,0.0,0.0,71,0.00,,,0.00,WeatherCatV1.13B119,2013-01-21 10:58:00,
2013-01-21 03:03:00,43.9,35.1,30.14,WSW,250,0.0,1.0,71,0.00,,,0.00,WeatherCatV1.13B119,2013-01-21 11:03:00,
2013-01-21 03:08:00,43.7,35.3,30.14,NE,34,0.0,0.0,72,0.00,,,0.00,WeatherCatV1.13B119,2013-01-21 11:08:00,
2013-01-21 03:13:00,43.8,35.7,30.14,NE,42,0.0,1.0,73,0.00,,,0.00,WeatherCatV1.13B119,2013-01-21 11:13:00,
2013-01-21 03:18:00,43.9,36.2,30.13,NE,36,1.0,1.0,74,0.00,,,0.00,WeatherCatV1.13B119,2013-01-21 11:18:00,
2013-01-21 03:23:00,43.8,36.1,30.13,ENE,57,0.0,1.0,74,0.00,,,0.00,WeatherCatV1.13B119,2013-01-21 11:23:00,
2013-01-21 03:28:00,43.7,35.6,30.13,WNW,283,0.0,0.0,73,0.00,,,0.00,WeatherCatV1.13B119,2013-01-21 11:28:00,
2013-01-21 03:33:00,43.6,35.5,30.13,NE,46,1.0,1.0,73,0.00,,,0.00,WeatherCatV1.13B119,2013-01-21 11:33:00,
2013-01-21 03:38:00,43.4,35.3,30.13,SW,232,0.0,1.0,73,0.00,,,0.00,WeatherCatV1.13B119,2013-01-21 11:38:00,
2013-01-21 03:43:00,43.4,35.3,30.13,WSW,238,1.0,1.0,73,0.00,,,0.00,WeatherCatV1.13B119,2013-01-21 11:43:00,
2013-01-21 03:48:00,43.4,35.3,30.13,SW,226,0.0,1.0,73,0.00,,,0.00,WeatherCatV1.13B119,2013-01-21 11:48:00,
2013-01-21 03:53:00,43.5,35.1,30.13,NNE,20,1.0,3.0,72,0.00,,,0.00,WeatherCatV1.13B119,2013-01-21 11:53:00,
2013-01-21 03:58:00,43.6,35.2,30.13,NE,40,2.0,2.0,72,0.00,,,0.00,WeatherCatV1.13B119,2013-01-21 11:58:00,
2013-01-21 04:03:00,43.5,35.4,30.12,WSW,250,2.0,2.0,73,0.00,,,0.00,WeatherCatV1.13B119,2013-01-21 12:03:00,
2013-01-21 04:08:00,43.4,35.3,30.13,WSW,253,1.0,2.0,73,0.00,,,0.00,WeatherCatV1.13B119,2013-01-21 12:08:00,
2013-01-21 04:13:00,43.4,35.3,30.12,NW,307,0.0,3.0,73,0.00,,,0.00,WeatherCatV1.13B119,2013-01-21 12:13:00,
2013-01-21 04:18:00,43.4,35.3,30.12,West,262,0.0,2.0,73,0.00,,,0.00,WeatherCatV1.13B119,2013-01-21 12:18:00,
2013-01-21 04:23:00,43.4,36.0,30.12,North,4,0.0,2.0,75,0.00,,,0.00,WeatherCatV1.13B119,2013-01-21 12:23:00,
2013-01-21 04:28:00,43.4,36.3,30.12,WSW,256,1.0,2.0,76,0.00,,,0.00,WeatherCatV1.13B119,2013-01-21 12:28:00,
2013-01-21 04:33:00,43.4,36.7,30.12,NE,40,0.0,3.0,77,0.00,,,0.00,WeatherCatV1.13B119,2013-01-21 12:33:00,
2013-01-21 04:38:00,43.4,36.7,30.12,WNW,291,0.0,2.0,77,0.00,,,0.00,WeatherCatV1.13B119,2013-01-21 12:38:00,
2013-01-21 04:43:00,43.2,36.8,30.11,West,280,0.0,1.0,78,0.00,,,0.00,WeatherCatV1.13B119,2013-01-21 12:43:00,
2013-01-21 04:48:00,43.1,37.0,30.11,West,280,1.0,1.0,79,0.00,,,0.00,WeatherCatV1.13B119,2013-01-21 12:48:00,
2013-01-21 04:53:00,43.0,36.9,30.11,SE,146,1.0,4.0,79,0.00,,,0.00,WeatherCatV1.13B119,2013-01-21 12:53:00,
2013-01-21 04:58:00,43.0,36.9,30.11,North,0,0.0,1.0,79,0.00,,,0.00,WeatherCatV1.13B119,2013-01-21 12:58:00,
2013-01-21 05:03:00,43.0,36.9,30.11,NW,310,0.0,2.0,79,0.00,,,0.00,WeatherCatV1.13B119,2013-01-21 13:03:00,
2013-01-21 05:08:00,43.0,37.3,30.12,NNE,25,1.0,1.0,80,0.00,,,0.00,WeatherCatV1.13B119,2013-01-21 13:08:00,
2013-01-21 05:13:00,43.0,37.3,30.11,East,96,0.0,1.0,80,0.00,,,0.00,WeatherCatV1.13B119,2013-01-21 13:13:00,
2013-01-21 05:18:00,42.9,37.5,30.11,West,270,1.0,4.0,81,0.00,,,0.00,WeatherCatV1.13B119,2013-01-21 13:18:00,
2013-01-21 05:23:00,42.9,37.5,30.11,WSW,240,2.0,3.0,81,0.00,,,0.00,WeatherCatV1.13B119,2013-01-21 13:23:00,
2013-01-21 05:28:00,42.8,37.4,30.12,West,271,1.0,3.0,81,0.00,,,0.00,WeatherCatV1.13B119,2013-01-21 13:28:00,
2013-01-21 05:33:00,42.7,37.6,30.11,WSW,246,1.0,2.0,82,0.00,,,0.00,WeatherCatV1.13B119,2013-01-21 13:33:00,
2013-01-21 05:38:00,42.7,37.6,30.11,SE,140,1.0,1.0,82,0.00,,,0.00,WeatherCatV1.13B119,2013-01-21 13:38:00,
2013-01-21 05:43:00,42.7,37.6,30.11,NW,312,0.0,2.0,82,0.00,,,0.00,WeatherCatV1.13B119,2013-01-21 13:43:00,
2013-01-21 05:48:00,42.8,37.4,30.11,NNE,18,1.0,3.0,81,0.00,,,0.00,WeatherCatV1.13B119,2013-01-21 13:48:00,
2013-01-21 05:53:00,42.8,37.4,30.11,SSW,203,0.0,1.0,81,0.00,,,0.00,WeatherCatV1.13B119,2013-01-21 13:53:00,
2013-01-21 05:58:00,42.7,37.3,30.11,NE,42,0.0,3.0,81,0.00,,,0.00,WeatherCatV1.13B119,2013-01-21 13:58:00,
2013-01-21 06:03:00,42.6,37.2,30.11,NNE,30,0.0,1.0,81,0.00,,,0.00,WeatherCatV1.13B119,2013-01-21 14:03:00,
2013-01-21 06:08:00,42.6,37.2,30.11,NE,49,0.0,0.0,81,0.00,,,0.00,WeatherCatV1.13B119,2013-01-21 14:08:00,
2013-01-21 06:13:00,42.7,37.3,30.11,West,271,2.0,3.0,81,0.00,,,0.00,WeatherCatV1.13B119,2013-01-21 14:13:00,
2013-01-21 06:18:00,42.7,37.3,30.11,West,269,2.0,2.0,81,0.00,,,0.00,WeatherCatV1.13B119,2013-01-21 14:18:00,
2013-01-21 06:23:00,42.9,37.8,30.11,West,278,1.0,3.0,82,0.00,,,0.00,WeatherCatV1.13B119,2013-01-21 14:23:00,
2013-01-21 06:28:00,43.0,37.6,30.12,West,259,0.0,0.0,81,0.00,,,0.00,WeatherCatV1.13B119,2013-01-21 14:28:00,
2013-01-21 06:33:00,43.2,37.8,30.12,NNE,22,0.0,1.0,81,0.00,,,0.00,WeatherCatV1.13B119,2013-01-21 14:33:00,
2013-01-21 06:38:00,43.3,37.9,30.12,WSW,253,0.0,1.0,81,0.00,,,0.00,WeatherCatV1.13B119,2013-01-21 14:38:00,
2013-01-21 06:43:00,43.4,38.0,30.12,SW,218,0.0,2.0,81,0.00,,,0.00,WeatherCatV1.13B119,2013-01-21 14:43:00,
2013-01-21 06:48:00,43.6,37.8,30.12,NW,307,0.0,2.0,80,0.00,,,0.00,WeatherCatV1.13B119,2013-01-21 14:48:00,
2013-01-21 06:53:00,43.8,38.0,30.13,WSW,255,0.0,2.0,80,0.00,,,0.00,WeatherCatV1.13B119,2013-01-21 14:53:00,
2013-01-21 06:58:00,43.9,38.1,30.13,WNW,285,1.0,2.0,80,0.00,,,0.00,WeatherCatV1.13B119,2013-01-21 14:58:00,
2013-01-21 07:03:00,43.9,38.1,30.13,West,267,0.0,2.0,80,0.00,,,0.00,WeatherCatV1.13B119,2013-01-21 15:03:00,
2013-01-21 07:08:00,43.9,38.1,30.13,WNW,291,1.0,2.0,80,0.00,,,0.00,WeatherCatV1.13B119,2013-01-21 15:08:00,
2013-01-21 07:13:00,43.8,38.0,30.13,SW,236,0.0,1.0,80,0.00,,,0.00,WeatherCatV1.13B119,2013-01-21 15:13:00,
2013-01-21 07:18:00,43.6,37.8,30.13,West,259,0.0,2.0,80,0.00,,,0.00,WeatherCatV1.13B119,2013-01-21 15:18:00,
2013-01-21 07:23:00,43.5,38.1,30.13,WSW,258,0.0,1.0,81,0.00,,,0.00,WeatherCatV1.13B119,2013-01-21 15:23:00,
2013-01-21 07:28:00,43.4,38.0,30.13,NE,45,0.0,2.0,81,0.00,,,0.00,WeatherCatV1.13B119,2013-01-21 15:28:00,
2013-01-21 07:33:00,43.4,38.0,30.14,West,275,0.0,0.0,81,0.00,,,0.00,WeatherCatV1.13B119,2013-01-21 15:33:00,
2013-01-21 07:38:00,43.4,38.0,30.14,West,268,0.0,1.0,81,0.00,,,0.00,WeatherCatV1.13B119,2013-01-21 15:38:00,
2013-01-21 07:43:00,43.5,37.7,30.14,WSW,252,1.0,1.0,80,0.00,,,0.00,WeatherCatV1.13B119,2013-01-21 15:43:00,
2013-01-21 07:48:00,43.6,37.8,30.15,NNE,25,0.0,1.0,80,0.00,,,0.00,WeatherCatV1.13B119,2013-01-21 15:48:00,
2013-01-21 07:53:00,43.8,38.0,30.15,NE,36,0.0,1.0,80,0.00,,,0.00,WeatherCatV1.13B119,2013-01-21 15:53:00,
2013-01-21 07:58:00,43.8,38.0,30.15,SW,236,0.0,0.0,80,0.00,,,0.00,WeatherCatV1.13B119,2013-01-21 15:58:00,
2013-01-21 08:03:00,43.9,38.1,30.15,NE,47,0.0,0.0,80,0.00,,,0.00,WeatherCatV1.13B119,2013-01-21 16:03:00,
2013-01-21 08:08:00,44.2,38.4,30.15,SW,225,0.0,1.0,80,0.00,,,0.00,WeatherCatV1.13B119,2013-01-21 16:08:00,
2013-01-21 08:13:00,44.5,38.7,30.15,NE,37,0.0,4.0,80,0.00,,,0.00,WeatherCatV1.13B119,2013-01-21 16:13:00,
2013-01-21 08:18:00,45.1,39.0,30.15,West,262,1.0,2.0,79,0.00,,,0.00,WeatherCatV1.13B119,2013-01-21 16:18:00,
2013-01-21 08:23:00,45.9,39.4,30.15,West,259,0.0,2.0,78,0.00,,,0.00,WeatherCatV1.13B119,2013-01-21 16:23:00,
2013-01-21 08:28:00,46.6,39.8,30.15,NE,34,0.0,0.0,77,0.00,,,0.00,WeatherCatV1.13B119,2013-01-21 16:28:00,
2013-01-21 08:33:00,47.3,40.1,30.16,NNE,20,0.0,0.0,76,0.00,,,0.00,WeatherCatV1.13B119,2013-01-21 16:33:00,
2013-01-21 08:38:00,47.9,40.4,30.15,ENE,73,0.0,0.0,75,0.00,,,0.00,WeatherCatV1.13B119,2013-01-21 16:38:00,
2013-01-21 08:43:00,48.5,40.6,30.16,WSW,240,0.0,0.0,74,0.00,,,0.00,WeatherCatV1.13B119,2013-01-21 16:43:00,
2013-01-21 08:48:00,48.7,40.8,30.16,SW,226,0.0,1.0,74,0.00,,,0.00,WeatherCatV1.13B119,2013-01-21 16:48:00,
2013-01-21 08:53:00,48.8,41.2,30.16,ESE,108,1.0,1.0,75,0.00,,,0.00,WeatherCatV1.13B119,2013-01-21 16:53:00,
2013-01-21 08:58:00,49.1,41.5,30.16,SW,226,0.0,1.0,75,0.00,,,0.00,WeatherCatV1.13B119,2013-01-21 16:58:00,
2013-01-21 09:03:00,49.6,41.7,30.16,SW,232,0.0,1.0,74,0.00,,,0.00,WeatherCatV1.13B119,2013-01-21 17:03:00,
2013-01-21 09:08:00,50.2,42.2,30.16,North,354,0.0,1.0,74,0.00,,,0.00,WeatherCatV1.13B119,2013-01-21 17:08:00,
2013-01-21 09:13:00,50.4,42.4,30.17,ESE,120,1.0,2.0,74,0.00,,,0.00,WeatherCatV1.13B119,2013-01-21 17:13:00,
2013-01-21 09:18:00,50.6,42.3,30.16,North,5,1.0,1.0,73,0.00,,,0.00,WeatherCatV1.13B119,2013-01-21 17:18:00,
2013-01-21 09:23:00,50.7,42.0,30.17,NNW,340,1.0,1.0,72,0.00,,,0.00,WeatherCatV1.13B119,2013-01-21 17:23:00,
2013-01-21 09:28:00,51.0,41.9,30.17,NNE,25,0.0,2.0,71,0.00,,,0.00,WeatherCatV1.13B119,2013-01-21 17:28:00,
2013-01-21 09:33:00,51.5,41.7,30.17,NNE,18,0.0,0.0,69,0.00,,,0.00,WeatherCatV1.13B119,2013-01-21 17:33:00,
2013-01-21 09:38:00,51.6,41.8,30.17,NNE,24,0.0,0.0,69,0.00,,,0.00,WeatherCatV1.13B119,2013-01-21 17:38:00,
2013-01-21 09:43:00,51.6,41.4,30.17,NE,39,0.0,1.0,68,0.00,,,0.00,WeatherCatV1.13B119,2013-01-21 17:43:00,
2013-01-21 09:48:00,51.4,41.6,30.17,NE,44,3.0,3.0,69,0.00,,,0.00,WeatherCatV1.13B119,2013-01-21 17:48:00,
2013-01-21 09:53:00,51.2,42.1,30.17,NNE,19,2.0,2.0,71,0.00,,,0.00,WeatherCatV1.13B119,2013-01-21 17:53:00,
2013-01-21 09:58:00,51.0,41.9,30.18,ENE,66,0.0,4.0,71,0.00,,,0.00,WeatherCatV1.13B119,2013-01-21 17:58:00,
2013-01-21 10:03:00,51.3,41.9,30.18,NE,34,1.0,2.0,70,0.00,,,0.00,WeatherCatV1.13B119,2013-01-21 18:03:00,
2013-01-21 10:08:00,51.2,41.4,30.18,NE,47,1.0,4.0,69,0.00,,,0.00,WeatherCatV1.13B119,2013-01-21 18:08:00,
2013-01-21 10:13:00,51.2,41.4,30.18,NE,46,0.0,2.0,69,0.00,,,0.00,WeatherCatV1.13B119,2013-01-21 18:13:00,
2013-01-21 10:18:00,51.4,41.6,30.18,NE,47,1.0,2.0,69,0.00,,,0.00,WeatherCatV1.13B119,2013-01-21 18:18:00,
2013-01-21 10:23:00,51.5,41.7,30.18,NE,41,1.0,4.0,69,0.00,,,0.00,WeatherCatV1.13B119,2013-01-21 18:23:00,
2013-01-21 10:28:00,51.7,41.5,30.18,NNE,32,1.0,3.0,68,0.00,,,0.00,WeatherCatV1.13B119,2013-01-21 18:28:00,
2013-01-21 10:33:00,51.8,41.6,30.18,NE,34,0.0,1.0,68,0.00,,,0.00,WeatherCatV1.13B119,2013-01-21 18:33:00,
2013-01-21 10:38:00,51.8,41.6,30.18,NE,44,1.0,3.0,68,0.00,,,0.00,WeatherCatV1.13B119,2013-01-21 18:38:00,
2013-01-21 10:43:00,51.8,41.6,30.18,NE,46,1.0,4.0,68,0.00,,,0.00,WeatherCatV1.13B119,2013-01-21 18:43:00,
2013-01-21 10:48:00,52.5,42.6,30.18,NE,39,0.0,1.0,69,0.00,,,0.00,WeatherCatV1.13B119,2013-01-21 18:48:00,
2013-01-21 10:53:00,53.2,42.9,30.18,NNE,23,0.0,0.0,68,0.00,,,0.00,WeatherCatV1.13B119,2013-01-21 18:53:00,
2013-01-21 10:58:00,54.2,42.7,30.18,West,260,0.0,0.0,65,0.00,,,0.00,WeatherCatV1.13B119,2013-01-21 18:58:00,
2013-01-21 11:03:00,55.1,43.1,30.18,NE,39,0.0,1.0,64,0.00,,,0.00,WeatherCatV1.13B119,2013-01-21 19:03:00,
2013-01-21 11:08:00,55.5,42.7,30.18,NNW,336,0.0,1.0,62,0.00,,,0.00,WeatherCatV1.13B119,2013-01-21 19:08:00,
2013-01-21 11:13:00,56.0,42.7,30.18,WSW,257,0.0,0.0,61,0.00,,,0.00,WeatherCatV1.13B119,2013-01-21 19:13:00,
2013-01-21 11:18:00,57.2,43.4,30.18,NNE,27,2.0,2.0,60,0.00,,,0.00,WeatherCatV1.13B119,2013-01-21 19:18:00,
2013-01-21 11:23:00,57.0,43.3,30.17,NE,42,2.0,2.0,60,0.00,,,0.00,WeatherCatV1.13B119,2013-01-21 19:23:00,
2013-01-21 11:28:00,56.7,42.5,30.17,NNW,339,0.0,1.0,59,0.00,,,0.00,WeatherCatV1.13B119,2013-01-21 19:28:00,
2013-01-21 11:33:00,56.8,43.5,30.17,North,11,1.0,1.0,61,0.00,,,0.00,WeatherCatV1.13B119,2013-01-21 19:33:00,
2013-01-21 11:38:00,57.5,43.7,30.17,SSW,208,0.0,0.0,60,0.00,,,0.00,WeatherCatV1.13B119,2013-01-21 19:38:00,
2013-01-21 11:43:00,58.8,43.6,30.17,ENE,73,0.0,0.0,57,0.00,,,0.00,WeatherCatV1.13B119,2013-01-21 19:43:00,
2013-01-21 11:48:00,59.1,43.4,30.17,NNE,12,0.0,0.0,56,0.00,,,0.00,WeatherCatV1.13B119,2013-01-21 19:48:00,
2013-01-21 11:53:00,58.8,43.6,30.16,NE,42,0.0,0.0,57,0.00,,,0.00,WeatherCatV1.13B119,2013-01-21 19:53:00,
2013-01-21 11:58:00,59.3,44.1,30.16,NNE,16,1.0,2.0,57,0.00,,,0.00,WeatherCatV1.13B119,2013-01-21 19:58:00,
2013-01-21 12:03:00,59.6,42.9,30.15,NE,48,0.0,2.0,54,0.00,,,0.00,WeatherCatV1.13B119,2013-01-21 20:03:00,
2013-01-21 12:08:00,59.7,43.5,30.15,SW,225,0.0,1.0,55,0.00,,,0.00,WeatherCatV1.13B119,2013-01-21 20:08:00,
2013-01-21 12:13:00,60.0,42.8,30.15,NNE,32,0.0,0.0,53,0.00,,,0.00,WeatherCatV1.13B119,2013-01-21 20:13:00,
2013-01-21 12:18:00,59.8,43.1,30.15,SW,236,0.0,0.0,54,0.00,,,0.00,WeatherCatV1.13B119,2013-01-21 20:18:00,
2013-01-21 12:23:00,59.7,43.0,30.15,NE,34,0.0,2.0,54,0.00,,,0.00,WeatherCatV1.13B119,2013-01-21 20:23:00,
2013-01-21 12:28:00,59.7,42.5,30.15,NE,41,0.0,1.0,53,0.00,,,0.00,WeatherCatV1.13B119,2013-01-21 20:28:00,
2013-01-21 12:33:00,59.2,42.1,30.15,NNE,32,1.0,3.0,53,0.00,,,0.00,WeatherCatV1.13B119,2013-01-21 20:33:00,
2013-01-21 12:38:00,58.2,41.6,30.15,NE,44,0.0,1.0,54,0.00,,,0.00,WeatherCatV1.13B119,2013-01-21 20:38:00,
2013-01-21 12:43:00,58.1,41.5,30.14,NE,37,0.0,0.0,54,0.00,,,0.00,WeatherCatV1.13B119,2013-01-21 20:43:00,
2013-01-21 12:48:00,58.2,41.2,30.14,NNE,27,0.0,3.0,53,0.00,,,0.00,WeatherCatV1.13B119,2013-01-21 20:48:00,
2013-01-21 12:53:00,58.3,41.2,30.14,NNE,28,1.0,2.0,53,0.00,,,0.00,WeatherCatV1.13B119,2013-01-21 20:53:00,
2013-01-21 12:58:00,58.4,40.8,30.14,NNE,28,1.0,3.0,52,0.00,,,0.00,WeatherCatV1.13B119,2013-01-21 20:58:00,
2013-01-21 13:03:00,58.4,40.8,30.14,NNE,15,0.0,2.0,52,0.00,,,0.00,WeatherCatV1.13B119,2013-01-21 21:03:00,
2013-01-21 13:08:00,58.5,40.9,30.14,NNE,27,1.0,1.0,52,0.00,,,0.00,WeatherCatV1.13B119,2013-01-21 21:08:00,
2013-01-21 13:13:00,58.8,40.7,30.13,NNE,22,1.0,1.0,51,0.00,,,0.00,WeatherCatV1.13B119,2013-01-21 21:13:00,
2013-01-21 13:18:00,58.8,40.7,30.13,NNE,32,0.0,3.0,51,0.00,,,0.00,WeatherCatV1.13B119,2013-01-21 21:18:00,
2013-01-21 13:23:00,59.3,40.7,30.13,NNE,23,1.0,2.0,50,0.00,,,0.00,WeatherCatV1.13B119,2013-01-21 21:23:00,
2013-01-21 13:28:00,59.1,41.0,30.13,NE,39,2.0,2.0,51,0.00,,,0.00,WeatherCatV1.13B119,2013-01-21 21:28:00,
2013-01-21 13:33:00,59.0,41.4,30.13,NE,34,0.0,0.0,52,0.00,,,0.00,WeatherCatV1.13B119,2013-01-21 21:33:00,
2013-01-21 13:38:00,58.9,40.3,30.13,NNE,19,0.0,3.0,50,0.00,,,0.00,WeatherCatV1.13B119,2013-01-21 21:38:00,
2013-01-21 13:43:00,59.0,40.9,30.12,NNE,30,0.0,1.0,51,0.00,,,0.00,WeatherCatV1.13B119,2013-01-21 21:43:00,
2013-01-21 13:48:00,58.9,40.8,30.12,NNE,13,1.0,2.0,51,0.00,,,0.00,WeatherCatV1.13B119,2013-01-21 21:48:00,
2013-01-21 13:53:00,58.8,41.2,30.12,NNE,24,0.0,0.0,52,0.00,,,0.00,WeatherCatV1.13B119,2013-01-21 21:53:00,
2013-01-21 13:58:00,59.1,42.5,30.12,NNE,28,0.0,0.0,54,0.00,,,0.00,WeatherCatV1.13B119,2013-01-21 21:58:00,
2013-01-21 14:03:00,59.0,41.9,30.12,NNE,32,1.0,2.0,53,0.00,,,0.00,WeatherCatV1.13B119,2013-01-21 22:03:00,
2013-01-21 14:08:00,58.5,41.4,30.12,NNE,12,2.0,3.0,53,0.00,,,0.00,WeatherCatV1.13B119,2013-01-21 22:08:00,
2013-01-21 14:13:00,58.3,41.2,30.12,North,11,1.0,2.0,53,0.00,,,0.00,WeatherCatV1.13B119,2013-01-21 22:13:00,
2013-01-21 14:18:00,58.2,41.2,30.12,NNE,15,1.0,4.0,53,0.00,,,0.00,WeatherCatV1.13B119,2013-01-21 22:18:00,
2013-01-21 14:23:00,58.4,41.8,30.12,NE,43,1.0,1.0,54,0.00,,,0.00,WeatherCatV1.13B119,2013-01-21 22:23:00,
2013-01-21 14:28:00,58.8,41.7,30.12,NNE,29,0.0,2.0,53,0.00,,,0.00,WeatherCatV1.13B119,2013-01-21 22:28:00,
2013-01-21 14:33:00,58.9,42.3,30.12,NNE,22,1.0,4.0,54,0.00,,,0.00,WeatherCatV1.13B119,2013-01-21 22:33:00,
2013-01-21 14:38:00,59.1,42.9,30.11,NNE,28,0.0,2.0,55,0.00,,,0.00,WeatherCatV1.13B119,2013-01-21 22:38:00,
2013-01-21 14:43:00,59.3,43.1,30.11,NNE,32,0.0,1.0,55,0.00,,,0.00,WeatherCatV1.13B119,2013-01-21 22:43:00,
2013-01-21 14:48:00,59.4,42.7,30.11,NNE,25,0.0,3.0,54,0.00,,,0.00,WeatherCatV1.13B119,2013-01-21 22:48:00,
2013-01-21 14:53:00,59.2,42.6,30.11,North,358,2.0,3.0,54,0.00,,,0.00,WeatherCatV1.13B119,2013-01-21 22:53:00,
2013-01-21 14:58:00,59.2,43.0,30.11,NNE,22,3.0,3.0,55,0.00,,,0.00,WeatherCatV1.13B119,2013-01-21 22:58:00,
2013-01-21 15:03:00,59.2,42.6,30.11,North,8,0.0,4.0,54,0.00,,,0.00,WeatherCatV1.13B119,2013-01-21 23:03:00,
2013-01-21 15:08:00,59.3,43.1,30.11,NNE,31,1.0,1.0,55,0.00,,,0.00,WeatherCatV1.13B119,2013-01-21 23:08:00,
2013-01-21 15:13:00,59.5,42.8,30.11,NNE,30,0.0,0.0,54,0.00,,,0.00,WeatherCatV1.13B119,2013-01-21 23:13:00,
2013-01-21 15:18:00,59.8,43.1,30.11,WSW,255,0.0,1.0,54,0.00,,,0.00,WeatherCatV1.13B119,2013-01-21 23:18:00,
2013-01-21 15:23:00,60.4,43.7,30.11,NNE,19,0.0,1.0,54,0.00,,,0.00,WeatherCatV1.13B119,2013-01-21 23:23:00,
2013-01-21 15:28:00,60.2,43.0,30.10,NNE,16,0.0,1.0,53,0.00,,,0.00,WeatherCatV1.13B119,2013-01-21 23:28:00,
2013-01-21 15:33:00,59.6,42.9,30.10,North,11,1.0,2.0,54,0.00,,,0.00,WeatherCatV1.13B119,2013-01-21 23:33:00,
2013-01-21 15:38:00,59.3,43.1,30.10,NNE,18,1.0,2.0,55,0.00,,,0.00,WeatherCatV1.13B119,2013-01-21 23:38:00,
2013-01-21 15:43:00,59.0,42.9,30.10,NNE,13,0.0,1.0,55,0.00,,,0.00,WeatherCatV1.13B119,2013-01-21 23:43:00,
2013-01-21 15:48:00,59.1,42.9,30.11,NNE,22,0.0,3.0,55,0.00,,,0.00,WeatherCatV1.13B119,2013-01-21 23:48:00,
2013-01-21 15:53:00,59.5,43.8,30.11,NNW,332,0.0,2.0,56,0.00,,,0.00,WeatherCatV1.13B119,2013-01-21 23:53:00,
2013-01-21 15:58:00,59.9,43.2,30.10,NNE,32,1.0,6.0,54,0.00,,,0.00,WeatherCatV1.13B119,2013-01-21 23:58:00,
2013-01-21 16:03:00,59.8,44.1,30.10,NE,46,0.0,1.0,56,0.00,,,0.00,WeatherCatV1.13B119,2013-01-22 00:03:00,
2013-01-21 16:08:00,60.7,44.0,30.09,NE,34,1.0,2.0,54,0.00,,,0.00,WeatherCatV1.13B119,2013-01-22 00:08:00,
2013-01-21 16:13:00,61.1,44.8,30.09,West,267,0.0,1.0,55,0.00,,,0.00,WeatherCatV1.13B119,2013-01-22 00:13:00,
2013-01-21 16:18:00,61.2,44.4,30.09,NE,39,0.0,0.0,54,0.00,,,0.00,WeatherCatV1.13B119,2013-01-22 00:18:00,
2013-01-21 16:23:00,61.3,44.5,30.09,NE,49,0.0,0.0,54,0.00,,,0.00,WeatherCatV1.13B119,2013-01-22 00:23:00,
2013-01-21 16:28:00,61.0,44.7,30.09,NE,51,0.0,0.0,55,0.00,,,0.00,WeatherCatV1.13B119,2013-01-22 00:28:00,
2013-01-21 16:33:00,60.1,43.9,30.09,WSW,256,0.0,0.0,55,0.00,,,0.00,WeatherCatV1.13B119,2013-01-22 00:33:00,
2013-01-21 16:38:00,59.0,42.9,30.09,NE,34,0.0,1.0,55,0.00,,,0.00,WeatherCatV1.13B119,2013-01-22 00:38:00,
2013-01-21 16:43:00,58.0,42.9,30.09,SSW,211,0.0,1.0,57,0.00,,,0.00,WeatherCatV1.13B119,2013-01-22 00:43:00,
2013-01-21 16:48:00,57.0,42.8,30.09,NW,309,0.0,0.0,59,0.00,,,0.00,WeatherCatV1.13B119,2013-01-22 00:48:00,
2013-01-21 16:53:00,56.1,42.4,30.09,WNW,290,0.0,0.0,60,0.00,,,0.00,WeatherCatV1.13B119,2013-01-22 00:53:00,
2013-01-21 16:59:00,55.6,42.8,30.09,NE,42,0.0,0.0,62,0.00,,,0.00,WeatherCatV1.13B119,2013-01-22 00:59:00,
2013-01-21 17:04:00,55.1,42.7,30.09,NNW,348,0.0,1.0,63,0.00,,,0.00,WeatherCatV1.13B119,2013-01-22 01:04:00,
2013-01-21 17:09:00,54.7,42.8,30.09,SW,218,0.0,0.0,64,0.00,,,0.00,WeatherCatV1.13B119,2013-01-22 01:09:00,
2013-01-21 17:14:00,54.5,42.6,30.09,SSE,164,0.0,0.0,64,0.00,,,0.00,WeatherCatV1.13B119,2013-01-22 01:14:00,
2013-01-21 17:19:00,54.1,41.8,30.09,NE,39,0.0,0.0,63,0.00,,,0.00,WeatherCatV1.13B119,2013-01-22 01:19:00,
2013-01-21 17:24:00,53.5,41.6,30.09,North,6,0.0,3.0,64,0.00,,,0.00,WeatherCatV1.13B119,2013-01-22 01:24:00,
2013-01-21 17:29:00,53.1,41.2,30.09,SW,231,0.0,0.0,64,0.00,,,0.00,WeatherCatV1.13B119,2013-01-22 01:29:00,
2013-01-21 17:34:00,52.8,41.4,30.09,WSW,249,0.0,1.0,65,0.00,,,0.00,WeatherCatV1.13B119,2013-01-22 01:34:00,
2013-01-21 17:39:00,52.6,41.2,30.09,NE,56,0.0,0.0,65,0.00,,,0.00,WeatherCatV1.13B119,2013-01-22 01:39:00,
2013-01-21 17:44:00,52.5,41.1,30.09,WSW,238,0.0,1.0,65,0.00,,,0.00,WeatherCatV1.13B119,2013-01-22 01:44:00,
2013-01-21 17:49:00,52.4,41.0,30.09,West,262,0.0,1.0,65,0.00,,,0.00,WeatherCatV1.13B119,2013-01-22 01:49:00,
2013-01-21 17:54:00,52.4,41.0,30.09,WNW,285,1.0,1.0,65,0.00,,,0.00,WeatherCatV1.13B119,2013-01-22 01:54:00,
2013-01-21 17:59:00,52.3,40.9,30.09,NNE,30,0.0,2.0,65,0.00,,,0.00,WeatherCatV1.13B119,2013-01-22 01:59:00,
2013-01-21 18:04:00,52.4,41.0,30.09,West,269,0.0,0.0,65,0.00,,,0.00,WeatherCatV1.13B119,2013-01-22 02:04:00,
2013-01-21 18:09:00,52.3,40.9,30.09,NW,326,0.0,2.0,65,0.00,,,0.00,WeatherCatV1.13B119,2013-01-22 02:09:00,
2013-01-21 18:14:00,52.3,41.3,30.09,East,99,1.0,1.0,66,0.00,,,0.00,WeatherCatV1.13B119,2013-01-22 02:14:00,
2013-01-21 18:19:00,52.2,41.2,30.09,WNW,294,0.0,2.0,66,0.00,,,0.00,WeatherCatV1.13B119,2013-01-22 02:19:00,
2013-01-21 18:24:00,52.1,41.1,30.10,NE,36,0.0,1.0,66,0.00,,,0.00,WeatherCatV1.13B119,2013-01-22 02:24:00,
2013-01-21 18:29:00,52.2,41.6,30.10,NW,309,1.0,3.0,67,0.00,,,0.00,WeatherCatV1.13B119,2013-01-22 02:29:00,
2013-01-21 18:34:00,52.1,41.1,30.10,SW,235,2.0,2.0,66,0.00,,,0.00,WeatherCatV1.13B119,2013-01-22 02:34:00,
2013-01-21 18:39:00,52.0,41.4,30.10,North,356,0.0,0.0,67,0.00,,,0.00,WeatherCatV1.13B119,2013-01-22 02:39:00,
2013-01-21 18:44:00,52.0,41.8,30.10,NNW,340,0.0,3.0,68,0.00,,,0.00,WeatherCatV1.13B119,2013-01-22 02:44:00,
2013-01-21 18:49:00,52.0,42.1,30.10,North,8,1.0,2.0,69,0.00,,,0.00,WeatherCatV1.13B119,2013-01-22 02:49:00,
2013-01-21 18:54:00,52.0,41.8,30.10,WNW,283,1.0,1.0,68,0.00,,,0.00,WeatherCatV1.13B119,2013-01-22 02:54:00,
2013-01-21 18:59:00,51.9,41.7,30.10,East,79,1.0,2.0,68,0.00,,,0.00,WeatherCatV1.13B119,2013-01-22 02:59:00,
2013-01-21 19:04:00,51.9,41.3,30.10,North,354,0.0,2.0,67,0.00,,,0.00,WeatherCatV1.13B119,2013-01-22 03:04:00,
2013-01-21 19:09:00,51.8,41.2,30.10,NNE,27,0.0,4.0,67,0.00,,,0.00,WeatherCatV1.13B119,2013-01-22 03:09:00,
2013-01-21 19:14:00,51.9,40.9,30.11,NW,309,2.0,2.0,66,0.00,,,0.00,WeatherCatV1.13B119,2013-01-22 03:14:00,
2013-01-21 19:19:00,51.9,40.9,30.10,NNE,15,1.0,2.0,66,0.00,,,0.00,WeatherCatV1.13B119,2013-01-22 03:19:00,
2013-01-21 19:24:00,51.9,40.9,30.10,NE,36,0.0,2.0,66,0.00,,,0.00,WeatherCatV1.13B119,2013-01-22 03:24:00,
2013-01-21 19:29:00,51.8,40.8,30.10,NE,42,0.0,3.0,66,0.00,,,0.00,WeatherCatV1.13B119,2013-01-22 03:29:00,
2013-01-21 19:34:00,51.8,40.8,30.10,SSE,148,0.0,2.0,66,0.00,,,0.00,WeatherCatV1.13B119,2013-01-22 03:34:00,
2013-01-21 19:39:00,51.6,41.0,30.10,NNE,30,0.0,2.0,67,0.00,,,0.00,WeatherCatV1.13B119,2013-01-22 03:39:00,
2013-01-21 19:44:00,51.6,41.0,30.10,WSW,244,1.0,3.0,67,0.00,,,0.00,WeatherCatV1.13B119,2013-01-22 03:44:00,
2013-01-21 19:49:00,51.5,40.5,30.11,NE,40,1.0,1.0,66,0.00,,,0.00,WeatherCatV1.13B119,2013-01-22 03:49:00,
2013-01-21 19:54:00,51.5,40.5,30.11,NNE,30,2.0,2.0,66,0.00,,,0.00,WeatherCatV1.13B119,2013-01-22 03:54:00,
2013-01-21 19:59:00,51.5,40.5,30.11,NNE,25,0.0,2.0,66,0.00,,,0.00,WeatherCatV1.13B119,2013-01-22 03:59:00,
2013-01-21 20:04:00,51.5,40.5,30.11,ENE,64,1.0,1.0,66,0.00,,,0.00,WeatherCatV1.13B119,2013-01-22 04:04:00,
2013-01-21 20:09:00,51.4,40.4,30.11,NE,54,1.0,3.0,66,0.00,,,0.00,WeatherCatV1.13B119,2013-01-22 04:09:00,
2013-01-21 20:14:00,51.3,40.3,30.11,NE,34,1.0,3.0,66,0.00,,,0.00,WeatherCatV1.13B119,2013-01-22 04:14:00,
2013-01-21 20:19:00,51.2,40.6,30.11,NE,36,0.0,1.0,67,0.00,,,0.00,WeatherCatV1.13B119,2013-01-22 04:19:00,
2013-01-21 20:24:00,51.1,40.5,30.11,NNW,345,0.0,1.0,67,0.00,,,0.00,WeatherCatV1.13B119,2013-01-22 04:24:00,
2013-01-21 20:29:00,51.1,40.9,30.11,NE,43,1.0,4.0,68,0.00,,,0.00,WeatherCatV1.13B119,2013-01-22 04:29:00,
2013-01-21 20:34:00,51.1,40.9,30.11,NNE,15,2.0,2.0,68,0.00,,,0.00,WeatherCatV1.13B119,2013-01-22 04:34:00,
2013-01-21 20:39:00,51.1,40.9,30.11,NNE,25,1.0,5.0,68,0.00,,,0.00,WeatherCatV1.13B119,2013-01-22 04:39:00,
2013-01-21 20:44:00,51.3,41.1,30.11,NE,34,0.0,6.0,68,0.00,,,0.00,WeatherCatV1.13B119,2013-01-22 04:44:00,
2013-01-21 20:49:00,51.3,40.7,30.12,NE,35,1.0,3.0,67,0.00,,,0.00,WeatherCatV1.13B119,2013-01-22 04:49:00,
2013-01-21 20:54:00,51.3,40.7,30.12,NE,40,1.0,3.0,67,0.00,,,0.00,WeatherCatV1.13B119,2013-01-22 04:54:00,
2013-01-21 20:59:00,51.4,40.4,30.12,NNE,23,1.0,4.0,66,0.00,,,0.00,WeatherCatV1.13B119,2013-01-22 04:59:00,
2013-01-21 21:00:00,51.4,40.4,30.12,NE,37,1.0,2.0,66,0.00,,,0.00,WeatherCatV1.13B119,2013-01-22 05:00:00,
2013-01-21 21:05:00,51.4,40.0,30.12,NE,44,1.0,3.0,65,0.00,,,0.00,WeatherCatV1.13B119,2013-01-22 05:05:00,
2013-01-21 21:10:00,51.5,40.1,30.12,NNE,25,0.0,1.0,65,0.00,,,0.00,WeatherCatV1.13B119,2013-01-22 05:10:00,
2013-01-21 21:15:00,51.5,40.1,30.12,NNE,30,0.0,3.0,65,0.00,,,0.00,WeatherCatV1.13B119,2013-01-22 05:15:00,
2013-01-21 21:20:00,51.6,40.2,30.12,NNE,30,0.0,3.0,65,0.00,,,0.00,WeatherCatV1.13B119,2013-01-22 05:20:00,
2013-01-21 21:25:00,51.6,40.2,30.13,NNE,13,1.0,2.0,65,0.00,,,0.00,WeatherCatV1.13B119,2013-01-22 05:25:00,
2013-01-21 21:29:00,51.7,40.7,30.13,North,4,2.0,2.0,66,0.00,,,0.00,WeatherCatV1.13B119,2013-01-22 05:29:00,
2013-01-21 21:34:00,51.8,40.8,30.13,NNE,20,0.0,4.0,66,0.00,,,0.00,WeatherCatV1.13B119,2013-01-22 05:34:00,
2013-01-21 21:39:00,51.8,40.8,30.13,NE,34,1.0,2.0,66,0.00,,,0.00,WeatherCatV1.13B119,2013-01-22 05:39:00,
2013-01-21 21:44:00,51.6,41.0,30.13,NE,41,1.0,2.0,67,0.00,,,0.00,WeatherCatV1.13B119,2013-01-22 05:44:00,
2013-01-21 21:49:00,51.4,40.8,30.13,NNE,23,0.0,2.0,67,0.00,,,0.00,WeatherCatV1.13B119,2013-01-22 05:49:00,
2013-01-21 21:54:00,51.3,41.1,30.13,NE,34,1.0,1.0,68,0.00,,,0.00,WeatherCatV1.13B119,2013-01-22 05:54:00,
2013-01-21 21:59:00,51.4,41.2,30.13,North,0,1.0,2.0,68,0.00,,,0.00,WeatherCatV1.13B119,2013-01-22 05:59:00,
2013-01-21 22:04:00,51.3,41.1,30.13,NE,34,2.0,2.0,68,0.00,,,0.00,WeatherCatV1.13B119,2013-01-22 06:04:00,
2013-01-21 22:09:00,51.4,41.6,30.13,NNE,29,1.0,4.0,69,0.00,,,0.00,WeatherCatV1.13B119,2013-01-22 06:09:00,
2013-01-21 22:14:00,51.4,41.6,30.13,NE,37,1.0,3.0,69,0.00,,,0.00,WeatherCatV1.13B119,2013-01-22 06:14:00,
2013-01-21 22:19:00,51.3,41.5,30.13,North,359,1.0,3.0,69,0.00,,,0.00,WeatherCatV1.13B119,2013-01-22 06:19:00,
2013-01-21 22:24:00,51.2,41.4,30.13,NE,39,0.0,1.0,69,0.00,,,0.00,WeatherCatV1.13B119,2013-01-22 06:24:00,
2013-01-21 22:29:00,51.1,41.3,30.13,NNE,30,3.0,4.0,69,0.00,,,0.00,WeatherCatV1.13B119,2013-01-22 06:29:00,
2013-01-21 22:34:00,51.0,41.6,30.13,NE,42,3.0,4.0,70,0.00,,,0.00,WeatherCatV1.13B119,2013-01-22 06:34:00,
2013-01-21 22:39:00,50.8,41.4,30.13,NE,37,1.0,3.0,70,0.00,,,0.00,WeatherCatV1.13B119,2013-01-22 06:39:00,
2013-01-21 22:44:00,50.8,41.4,30.13,NE,44,2.0,4.0,70,0.00,,,0.00,WeatherCatV1.13B119,2013-01-22 06:44:00,
2013-01-21 22:45:00,50.8,41.4,30.13,NNE,30,0.0,3.0,70,0.00,,,0.00,WeatherCatV1.13B119,2013-01-22 06:45:00,
2013-01-21 22:50:00,50.6,41.5,30.13,NE,34,2.0,3.0,71,0.00,,,0.00,WeatherCatV1.13B119,2013-01-22 06:50:00,
2013-01-21 22:55:00,50.4,41.4,30.12,NNE,13,1.0,3.0,71,0.00,,,0.00,WeatherCatV1.13B119,2013-01-22 06:55:00,
2013-01-21 23:00:00,50.4,41.4,30.13,NNE,27,1.0,3.0,71,0.00,,,0.00,WeatherCatV1.13B119,2013-01-22 07:00:00,
2013-01-21 23:05:00,50.3,41.6,30.13,NE,37,0.0,3.0,72,0.00,,,0.00,WeatherCatV1.13B119,2013-01-22 07:05:00,
2013-01-21 23:10:00,50.2,41.5,30.13,NNE,27,0.0,1.0,72,0.00,,,0.00,WeatherCatV1.13B119,2013-01-22 07:10:00,
2013-01-21 23:15:00,50.2,41.5,30.13,NE,44,2.0,4.0,72,0.00,,,0.00,WeatherCatV1.13B119,2013-01-22 07:15:00,
2013-01-21 23:20:00,50.2,41.5,30.13,NE,41,3.0,3.0,72,0.00,,,0.00,WeatherCatV1.13B119,2013-01-22 07:20:00,
2013-01-21 23:25:00,50.0,41.3,30.12,NE,41,1.0,2.0,72,0.00,,,0.00,WeatherCatV1.13B119,2013-01-22 07:25:00,
2013-01-21 23:30:00,49.9,41.6,30.12,NNE,30,0.0,4.0,73,0.00,,,0.00,WeatherCatV1.13B119,2013-01-22 07:30:00,
2013-01-21 23:35:00,49.7,41.4,30.12,NE,39,0.0,0.0,73,0.00,,,0.00,WeatherCatV1.13B119,2013-01-22 07:35:00,
2013-01-21 23:40:00,49.5,41.6,30.12,NE,41,1.0,2.0,74,0.00,,,0.00,WeatherCatV1.13B119,2013-01-22 07:40:00,
2013-01-21 23:45:00,49.4,41.5,30.12,NE,46,1.0,1.0,74,0.00,,,0.00,WeatherCatV1.13B119,2013-01-22 07:45:00,
2013-01-21 23:50:00,49.4,41.5,30.11,NE,56,0.0,2.0,74,0.00,,,0.00,WeatherCatV1.13B119,2013-01-22 07:50:00,
2013-01-21 23:55:00,49.3,41.4,30.12,NE,42,0.0,1.0,74,0.00,,,0.00,WeatherCatV1.13B119,2013-01-22 07:55:00,